Regional Weather Roundup
Issued by NWS State College, PA

Home | Current Version | Previous Version | Graphics & Text | Print | Product List | Glossary On
Versions: 1 2 3 4 5 6 7 8 9 10 11 12 13 14 15 16 17 18 19 20 21 22 23 24 25 26 27 28 29 30 31 32 33 34 35 36 37 38 39 40 41 42 43 44 45 46 47 48 49 50
000
ASUS41 KCTP 170910
RWRCTP

REGIONAL WEATHER ROUNDUP
NATIONAL WEATHER SERVICE STATE COLLEGE PA
400 AM EST SUN DEC 17 2017

Note: "fair" indicates few or no clouds below 12,000 feet with no
significant weather and/or obstructions to visibility.

* = STATION THAT DOES NOT REPORT PRECIPITATION /E.G. RAIN...SNOW...ETC/
    THUNDER OR FOG.

PAZ002>004-007>009-013>016-020>023-029>032-171000-
WESTERN PENNSYLVANIA

CITY           SKY/WX    TMP DP  RH WIND       PRES   REMARKS
ERIE           CLOUDY    25  22  88 E8        30.19F
MEADVILLE      FOG       22  20  92 NE5       30.13F VSB 1/4
FRANKLIN*      FOG       21  20  96 E3        30.13F VSB 1/2
NEW CASTLE     FAIR      21  19  92 CALM      30.16S FOG
BEAVER COUNTY  NOT AVBL
BUTLER*        CLEAR     26  24  92 S3        30.16S
PITTSBURGH INT PTCLDY    37  27  67 SW7       30.16S
PITTSBURGH     CLEAR     34  24  67 S10       30.16S
INDIANA*       PTCLDY    25  23  93 CALM      30.19S
LATROBE        CLEAR     32  27  80 SW12      30.19S
WASHINGTON CO* CLEAR     35  26  69 SW3       30.20F
$$

PAZ004>006-010>012-017>019-024>028-033>037-041-042-045-046-049>053-171000-
CENTRAL PENNSYLVANIA

CITY           SKY/WX    TMP DP  RH WIND       PRES   REMARKS
BRADFORD       CLOUDY    28  27  96 CALM      30.10F FOG
DUBOIS         FOG       23  21  92 E5        30.12S VSB<1/4
CLEARFIELD     CLOUDY    22  20  92 N5        30.14F
JOHNSTOWN      CLOUDY    34  25  69 SW10      30.13S
ALTOONA        CLEAR     37  26  64 SW8       30.16S
STATE COLLEGE  CLOUDY    28  25  88 CALM      30.16F
WILLIAMSPORT   CLOUDY    34  25  69 NE5       30.21F
SELINSGROVE    CLOUDY    32  29  88 CALM      30.22S
FT INDIANTOWN  CLOUDY    28  28 100 CALM      30.20F
CAPITAL CITY   CLEAR     26  21  81 CALM      30.21F
HARRISBURG     CLEAR     24  22  91 CALM      30.21F
YORK           CLOUDY    21  19  92 CALM      30.21S
$$

PAZ038>040-043-044-047-048-054-055-060>062-067>071-171000-
EASTERN PENNSYLVANIA

CITY           SKY/WX    TMP DP  RH WIND       PRES   REMARKS
SCRANTON       CLOUDY    27  22  81 NE3       30.22R
MOUNT POCONO   CLOUDY    23  22  96 NW6       30.15R
ALLENTOWN      CLOUDY    32  24  72 NE6       30.23S
QUAKERTOWN*    CLOUDY    32  28  86 CALM      30.23S
READING        CLOUDY    33  29  85 N5        30.21F
LANCASTER      CLEAR     29  26  89 CALM      30.21F
COATESVILLE    CLOUDY    28  25  86 CALM      30.21F
POTTSTOWN      CLOUDY    31  26  82 NE3       30.24S
BLUE BELL      CLOUDY    30  28  93 CALM      30.25S
DOYLESTOWN     CLOUDY    33  25  72 CALM      30.23S
WILLOW GROVE   NOT AVBL
NORTH PHILA    CLOUDY    34  26  72 NE5       30.26R
PHILADELPHIA   PTCLDY    32  26  78 E6        30.24S
$$



USA.gov is the U.S. government's official web portal to all federal, state and local government web resources and services.